Flag for France Weather past 2 weeks in Tours, France

Now
39 °F

Passing clouds.


Feels Like: 34 °F
Forecast: 38 / 61 °F
Wind: 7 mph from Northeast

Location: Tours Airport


UV Index: 3 (Moderate)

Visibility: N/A


Pressure: 29.95 "Hg

Humidity: 87%

Dew point: 36 °F

Location of ToursLocation

Historic Weather in Tours

°F

Tours temperature yesterday

Maximum temperature yesterday: 61 °F (at 3:00 PM)
Minimum temperature yesterday: 46 °F (at 11:30 PM)
Average temperature yesterday: 54 °F

Past Weeks' High & Low Weather Summary

 TemperatureHumidityPressure
High72 °F (Apr 7, 2:30 PM)100% (Apr 4, 4:00 AM)30.36 "Hg (Apr 4, 4:00 AM)
Low37 °F (Apr 9, 6:30 AM)30% (Apr 17, 3:30 PM)29.71 "Hg (Apr 4, 4:00 AM)
Average54 °F68%30.12 "Hg
* Reported Apr 4 4:00 AM — Apr 19 4:30 AM, Tours, Weather by CustomWeather, © 2014

Note: Actual official high and low records may vary slightly from our data, if they occured in-between our weather recording intervals... More about our weather records

Advertising

Historic Weather Conditions — Data for Previous 24 hours

 ConditionsComfort  
Time TempWeatherWind HumidityBarometerVisibility
4:30 AM
Apr 19
41 °FClear.7 mph76%29.95 "HgN/A
4:00 AM41 °FClear.8 mph76%29.95 "HgN/A
3:30 AM43 °FClear.9 mph71%29.95 "HgN/A
3:00 AM43 °FClear.8 mph71%29.95 "HgN/A
2:30 AM43 °FClear.13 mph71%29.98 "HgN/A
2:08 AM45 °FPassing clouds.10 mph66%29.98 "HgN/A
1:30 AM45 °FPassing clouds.9 mph66%29.98 "HgN/A
1:12 AM45 °FPassing clouds.8 mph66%29.98 "HgN/A
12:30 AM46 °FPassing clouds.8 mph62%30.01 "HgN/A
12:00 AM46 °FPassing clouds.7 mph62%29.98 "HgN/A
11:30 PM
Apr 18
46 °FPassing clouds.6 mph66%29.98 "HgN/A
11:00 PM48 °FPassing clouds.6 mph62%29.98 "HgN/A
10:30 PM48 °FPassing clouds.6 mph62%29.98 "HgN/A
10:00 PM48 °FPassing clouds.5 mph62%29.98 "HgN/A
9:30 PM50 °FPassing clouds.6 mph54%29.98 "HgN/A
9:00 PM52 °FPassing clouds.5 mph50%29.98 "HgN/A
8:30 PM55 °FPassing clouds.7 mph44%29.98 "HgN/A
8:00 PM57 °FPassing clouds.9 mph41%29.98 "HgN/A
7:30 PM57 °FClear.10 mph41%29.98 "HgN/A
7:00 PM59 °FClear.12 mph39%29.98 "HgN/A
6:30 PM59 °FClear.10 mph45%29.98 "HgN/A
6:00 PM59 °FClear.10 mph42%29.98 "HgN/A
5:30 PM61 °FClear.9 mph39%29.98 "HgN/A
5:00 PM61 °FClear.13 mph39%29.98 "HgN/A
4:30 PM59 °FClear.9 mph48%29.98 "HgN/A
4:00 PM61 °FClear.9 mph45%29.98 "HgN/A
3:30 PM61 °FClear.7 mph45%30.01 "HgN/A
3:00 PM61 °FScattered clouds.9 mph45%30.01 "HgN/A
2:30 PM59 °FOvercast.8 mph51%30.01 "HgN/A
2:00 PM59 °FPartly sunny.10 mph51%30.01 "HgN/A
1:30 PM59 °FPartly sunny.8 mph59%30.01 "HgN/A
1:00 PM57 °FMostly cloudy.9 mph59%30.04 "HgN/A
12:30 PM55 °FBroken clouds.10 mph67%30.04 "HgN/A
12:00 PM55 °FMostly cloudy.9 mph67%30.04 "HgN/A
11:30 AM55 °FMostly cloudy.9 mph72%30.04 "HgN/A
11:00 AM54 °FMostly cloudy.9 mph77%30.04 "HgN/A
10:30 AM54 °FMostly cloudy.9 mph77%30.01 "Hg6 mi
10:00 AM54 °FBroken clouds.9 mph77%30.01 "Hg5 mi
9:30 AM52 °FCloudy.8 mph77%30.01 "HgN/A
9:00 AM50 °FMore clouds than sun.6 mph76%30.01 "HgN/A
8:30 AM50 °FClear.6 mph76%30.01 "HgN/A
8:00 AM50 °FClear.5 mph76%30.01 "Hg10 mi
7:39 AM50 °FClear.3 mph76%30.01 "Hg10 mi
7:00 AM50 °FPassing clouds.5 mph71%30.01 "HgN/A
6:30 AM50 °FClear.6 mph71%30.01 "Hg10 mi
6:00 AM50 °FPassing clouds.6 mph71%30.01 "HgN/A
Weather by CustomWeather, © 2014

See weather overview